When you browse on this site, cookies collect data to enhance your experience and personalize the content and advertising you see.
Visit our Privacy Policy to learn more. By continuing to use the site, you agree to this use of cookies and data.
  • In Latvia
  • List of Countries
  • For 7 days
  • Water Temperature
  • Satellite Maps
  • Weather Map
  • Weather Widgets
  • user-avatar
    Login

    Hourly Weather Washington

    Today, 20 July, Saturday

    Time Temperature Precipitation Wind Pressure Humidity
    00:00 +29°C° 0 mm 2 mps 752 mmHg 70%
    01:00 +28°C° 0 mm 2 mps 752 mmHg 70%
    02:00 +28°C° 0 mm 2 mps 752 mmHg 72%
    03:00 +27°C° 0 mm 2 mps 752 mmHg 74%
    04:00 +27°C° 0 mm 1 mps 752 mmHg 76%
    05:00 +28°C° 0 mm 2 mps 753 mmHg 76%
    06:00 +28°C° 0 mm 2 mps 753 mmHg 76%
    07:00 +29°C° 0 mm 2 mps 753 mmHg 76%
    08:00 +31°C° 0 mm 2 mps 753 mmHg 71%
    09:00 +34°C° 0 mm 2 mps 753 mmHg 66%
    10:00 +35°C° 0 mm 2 mps 753 mmHg 61%
    11:00 +36°C° 0.1 mm 2 mps 753 mmHg 57%
    12:00 +37°C° 0.1 mm 2 mps 753 mmHg 53%
    13:00 +38°C° 0.1 mm 2 mps 752 mmHg 49%
    14:00 +39°C° 0 mm 2 mps 752 mmHg 47%
    15:00 +39°C° 0 mm 2 mps 751 mmHg 46%
    16:00 +39°C° 0 mm 2 mps 751 mmHg 45%
    17:00 +38°C° 0 mm 2 mps 751 mmHg 49%
    18:00 +36°C° 0 mm 2 mps 751 mmHg 53%
    19:00 +34°C° 0 mm 1 mps 751 mmHg 58%
    20:00 +32°C° 0.4 mm 2 mps 751 mmHg 62%
    21:00 +31°C° 0.4 mm 2 mps 752 mmHg 67%
    22:00 +30°C° 0.4 mm 2 mps 752 mmHg 71%
    23:00 +29°C° 0.3 mm 2 mps 752 mmHg 74%

    Tomorrow, 21 July, Sunday

    Time Temperature Precipitation Wind Pressure Humidity
    00:00 +29°C° 0.3 mm 2 mps 752 mmHg 77%
    01:00 +28°C° 0.3 mm 2 mps 752 mmHg 80%
    02:00 +28°C° 0 mm 2 mps 752 mmHg 81%
    03:00 +27°C° 0 mm 2 mps 752 mmHg 82%
    04:00 +27°C° 0 mm 2 mps 751 mmHg 83%
    05:00 +28°C° 0 mm 2 mps 752 mmHg 82%
    06:00 +28°C° 0 mm 2 mps 752 mmHg 81%
    07:00 +29°C° 0 mm 2 mps 752 mmHg 80%
    08:00 +31°C° 0 mm 2 mps 752 mmHg 74%
    09:00 +33°C° 0 mm 3 mps 752 mmHg 67%
    10:00 +35°C° 0 mm 3 mps 752 mmHg 61%
    11:00 +36°C° 0 mm 3 mps 752 mmHg 56%
    12:00 +37°C° 0 mm 3 mps 752 mmHg 52%
    13:00 +39°C° 0 mm 2 mps 751 mmHg 47%
    14:00 +39°C° 0 mm 2 mps 751 mmHg 45%
    15:00 +40°C° 0 mm 2 mps 751 mmHg 43%
    16:00 +40°C° 0 mm 2 mps 750 mmHg 41%
    17:00 +37°C° 0.9 mm 2 mps 750 mmHg 51%
    18:00 +34°C° 0.9 mm 3 mps 750 mmHg 61%
    19:00 +30°C° 0.9 mm 4 mps 750 mmHg 71%
    20:00 +28°C° 5.4 mm 3 mps 751 mmHg 75%
    21:00 +27°C° 5.4 mm 3 mps 751 mmHg 79%
    22:00 +25°C° 5.4 mm 3 mps 752 mmHg 83%
    23:00 +25°C° 0 mm 2 mps 752 mmHg 82%

    Day after tomorrow, 22 July, Monday

    Time Temperature Precipitation Wind Pressure Humidity
    00:00 +26°C° 0 mm 2 mps 752 mmHg 82%
    01:00 +26°C° 0 mm 2 mps 751 mmHg 81%
    02:00 +26°C° 0 mm 1 mps 751 mmHg 82%
    03:00 +25°C° 0 mm 1 mps 751 mmHg 83%
    04:00 +25°C° 0 mm 1 mps 751 mmHg 84%
    05:00 +26°C° 0.4 mm 1 mps 751 mmHg 83%
    06:00 +26°C° 0.4 mm 1 mps 751 mmHg 82%
    07:00 +27°C° 0.4 mm 1 mps 751 mmHg 82%
    08:00 +29°C° 0 mm 1 mps 751 mmHg 75%
    09:00 +31°C° 0 mm 1 mps 751 mmHg 68%
    10:00 +33°C° 0 mm 1 mps 751 mmHg 62%
    11:00 +34°C° 0.2 mm 1 mps 750 mmHg 59%
    12:00 +35°C° 0.2 mm 1 mps 750 mmHg 56%
    13:00 +36°C° 0.2 mm 1 mps 750 mmHg 53%
    14:00 +35°C° 0.4 mm 1 mps 749 mmHg 56%
    15:00 +35°C° 0.4 mm 2 mps 749 mmHg 60%
    16:00 +34°C° 0.4 mm 2 mps 748 mmHg 64%
    17:00 +32°C° 2.2 mm 2 mps 748 mmHg 71%
    18:00 +30°C° 2.2 mm 1 mps 748 mmHg 78%
    19:00 +26°C° 2.2 mm 0 mps 748 mmHg 85%
    20:00 +28°C° 0.4 mm 1 mps 749 mmHg 85%
    21:00 +27°C° 0.4 mm 1 mps 749 mmHg 84%
    22:00 +27°C° 0.4 mm 2 mps 749 mmHg 84%
    23:00 +26°C° 1 mm 2 mps 749 mmHg 86%

    23 July, Tuesday

    Time Temperature Precipitation Wind Pressure Humidity
    00:00 +26°C° 1 mm 2 mps 749 mmHg 87%
    01:00 +25°C° 1 mm 3 mps 748 mmHg 88%
    02:00 +25°C° 0.5 mm 2 mps 748 mmHg 89%
    03:00 +25°C° 0.5 mm 2 mps 748 mmHg 90%
    04:00 +25°C° 0.5 mm 2 mps 748 mmHg 91%
    05:00 +24°C° 1.1 mm 3 mps 748 mmHg 91%
    06:00 +22°C° 1.1 mm 4 mps 749 mmHg 91%
    07:00 +21°C° 1.1 mm 6 mps 749 mmHg 92%
    08:00 +22°C° 1.2 mm 5 mps 750 mmHg 87%
    09:00 +22°C° 1.2 mm 5 mps 750 mmHg 82%
    10:00 +22°C° 1.2 mm 4 mps 751 mmHg 77%
    11:00 +25°C° 0 mm 4 mps 751 mmHg 69%
    12:00 +26°C° 0 mm 4 mps 751 mmHg 61%
    13:00 +28°C° 0 mm 3 mps 751 mmHg 53%
    14:00 +28°C° 0 mm 3 mps 751 mmHg 53%
    15:00 +28°C° 0 mm 3 mps 751 mmHg 52%
    16:00 +29°C° 0 mm 3 mps 751 mmHg 52%
    17:00 +27°C° 0 mm 3 mps 751 mmHg 55%
    18:00 +26°C° 0 mm 2 mps 751 mmHg 59%
    19:00 +25°C° 0 mm 2 mps 752 mmHg 62%
    20:00 +24°C° 0 mm 2 mps 752 mmHg 62%
    21:00 +22°C° 0 mm 3 mps 753 mmHg 61%
    22:00 +21°C° 0 mm 3 mps 753 mmHg 61%
    23:00 +20°C° 0 mm 3 mps 754 mmHg 62%

    24 July, Wednesday

    Time Temperature Precipitation Wind Pressure Humidity
    00:00 +19°C° 0 mm 3 mps 754 mmHg 63%
    01:00 +19°C° 0 mm 3 mps 754 mmHg 64%
    02:00 +18°C° 0 mm 3 mps 754 mmHg 65%
    03:00 +18°C° 0 mm 3 mps 754 mmHg 66%
    04:00 +17°C° 0 mm 2 mps 754 mmHg 67%
    05:00 +18°C° 0 mm 3 mps 755 mmHg 68%
    06:00 +18°C° 0 mm 3 mps 755 mmHg 69%
    07:00 +18°C° 0 mm 3 mps 756 mmHg 70%
    08:00 +20°C° 0 mm 3 mps 756 mmHg 65%
    09:00 +21°C° 0 mm 3 mps 756 mmHg 60%
    10:00 +24°C° 0 mm 3 mps 756 mmHg 55%
    11:00 +25°C° 0 mm 3 mps 756 mmHg 55%
    12:00 +25°C° 0 mm 2 mps 756 mmHg 55%
    13:00 +26°C° 0 mm 2 mps 755 mmHg 55%
    14:00 +26°C° 0 mm 2 mps 755 mmHg 55%
    15:00 +26°C° 0 mm 2 mps 755 mmHg 55%
    16:00 +27°C° 0 mm 1 mps 754 mmHg 55%
    17:00 +26°C° 0 mm 1 mps 755 mmHg 60%
    18:00 +25°C° 0 mm 1 mps 755 mmHg 65%
    19:00 +24°C° 0 mm 1 mps 755 mmHg 70%
    20:00 +23°C° 0 mm 1 mps 756 mmHg 72%
    21:00 +20°C° 0 mm 0 mps 756 mmHg 74%
    22:00 +19°C° 0 mm 0 mps 756 mmHg 75%
    23:00 +18°C° 0 mm 0 mps 756 mmHg 76%

    25 July, Thursday

    Time Temperature Precipitation Wind Pressure Humidity
    00:00 +18°C° 0 mm 0 mps 756 mmHg 77%
    01:00 +18°C° 0 mm 0 mps 757 mmHg 78%
    02:00 +17°C° 0 mm 0 mps 757 mmHg 79%
    03:00 +17°C° 0 mm 0 mps 757 mmHg 80%
    04:00 +19°C° 0 mm 1 mps 757 mmHg 81%
    05:00 +20°C° 0 mm 1 mps 758 mmHg 79%
    06:00 +20°C° 0 mm 1 mps 758 mmHg 76%
    07:00 +21°C° 0 mm 1 mps 758 mmHg 74%
    08:00 +23°C° 0 mm 1 mps 759 mmHg 67%
    09:00 +25°C° 0 mm 1 mps 759 mmHg 60%
    10:00 +27°C° 0 mm 1 mps 759 mmHg 54%
    11:00 +28°C° 0 mm 1 mps 759 mmHg 51%
    12:00 +28°C° 0 mm 2 mps 759 mmHg 49%
    13:00 +29°C° 0 mm 2 mps 758 mmHg 47%
    14:00 +29°C° 0 mm 2 mps 758 mmHg 48%
    15:00 +29°C° 0 mm 2 mps 758 mmHg 49%
    16:00 +29°C° 0 mm 2 mps 758 mmHg 50%
    17:00 +27°C° 0 mm 2 mps 758 mmHg 56%
    18:00 +26°C° 0 mm 2 mps 759 mmHg 61%
    19:00 +25°C° 0 mm 1 mps 759 mmHg 67%
    20:00 +24°C° 0 mm 1 mps 759 mmHg 67%
    21:00 +22°C° 0 mm 1 mps 760 mmHg 68%
    22:00 +19°C° 0 mm 0 mps 760 mmHg 69%
    23:00 +19°C° 0 mm 0 mps 760 mmHg 70%
    Show more